Location: Slidell
(30.2789°N, 89.7378°W)
Time: 00:31:15
(UTC-05:00)

Cosmos 2360 Rocket - Visible Passes

Search period start: 23 August 2014 00:00
Search period end: 02 September 2014 00:00
Orbit: 833 x 847 km, 71.0° (Epoch: 22 August)

Date Brightness Start Highest point End Pass type
(mag) Time Alt. Az. Time Alt. Az. Time Alt. Az.
24 Aug 2.5 06:02:43 10° S 06:08:17 73° ESE 06:13:53 10° NNE visible
25 Aug 2.6 05:47:10 10° S 05:52:42 68° ESE 05:58:18 10° NNE visible
26 Aug 2.7 05:31:38 10° S 05:37:08 63° ESE 05:42:42 10° NNE visible
27 Aug 2.8 05:16:06 10° S 05:21:34 58° ESE 05:27:05 10° NNE visible
28 Aug 2.9 05:00:35 10° S 05:06:01 54° ESE 05:11:29 10° NNE visible
29 Aug 3.0 04:46:11 16° S 04:50:27 50° ESE 04:55:52 10° NNE visible
30 Aug 3.0 04:31:55 24° SSE 04:34:53 46° ESE 04:40:14 10° NNE visible
31 Aug 3.1 04:17:33 33° SSE 04:19:20 43° ESE 04:24:37 10° NE visible
31 Aug 3.6 05:59:23 10° WSW 06:03:27 20° WNW 06:07:34 10° NNW visible
01 Sep 3.2 04:03:06 38° ESE 04:03:46 39° ESE 04:08:58 10° NE visible
01 Sep 3.5 05:44:55 15° W 05:47:50 22° WNW 05:52:07 10° NNW visible
